timestamp,surface_pressure_avg,surface_temp_avg,battery_voltage,lat,long
2020-10-05 00:09:01+00:00,315.718,14.48,12.81,47.84626,-54.09684
2020-10-05 00:19:01+00:00,316.413,14.47,12.81,47.84626,-54.09684
2020-10-05 00:29:01+00:00,325.6846,14.4,12.81,47.84626,-54.09684
2020-10-05 00:39:01+00:00,331.9597,14.4,12.81,47.84626,-54.09684
2020-10-05 00:49:01+00:00,328.9663,14.4,12.81,47.84626,-54.09684
2020-10-05 00:59:01+00:00,327.783,14.41,12.81,47.84626,-54.09684
2020-10-05 01:09:01+00:00,334.3698,14.4,12.81,47.84626,-54.09684
2020-10-05 01:19:01+00:00,334.5796,14.4,12.81,47.84626,-54.09684
2020-10-05 01:29:01+00:00,325.778,14.43,12.81,47.84626,-54.09684
2020-10-05 01:39:01+00:00,319.763,14.48,12.81,47.84626,-54.09684
2020-10-05 01:49:01+00:00,320.0247,14.48,12.81,47.84626,-54.09684
2020-10-05 01:59:01+00:00,321.2562,14.47,12.81,47.84626,-54.09684
2020-10-05 02:09:01+00:00,318.3597,14.43,12.81,47.84626,-54.09684
2020-10-05 02:19:01+00:00,314.578,14.48,12.81,47.84626,-54.09684
2020-10-05 02:29:01+00:00,313.4464,14.4,12.81,47.84626,-54.09684
2020-10-05 02:39:01+00:00,312.5081,14.4,12.81,47.84626,-54.09684
2020-10-05 02:49:01+00:00,307.7513,14.4,12.81,47.84626,-54.09684
2020-10-05 02:59:01+00:00,306.8414,14.48,12.81,47.84626,-54.09684
2020-10-05 03:09:01+00:00,309.8196,14.46,12.81,47.84626,-54.09684
2020-10-05 03:19:01+00:00,301.063,14.45,12.73,47.84626,-54.09684
2020-10-05 03:29:01+00:00,288.5513,14.5,12.73,47.84626,-54.09684
2020-10-05 03:39:01+00:00,284.728,14.5,12.73,47.84626,-54.09684
2020-10-05 03:49:01+00:00,283.493,14.5,12.73,47.84626,-54.09684
2020-10-05 03:59:01+00:00,277.6147,14.5,12.73,47.84626,-54.09684
2020-10-05 04:09:01+00:00,270.5831,14.56,12.73,47.84626,-54.09684
2020-10-05 04:19:01+00:00,266.4314,14.58,12.73,47.84626,-54.09684
2020-10-05 04:29:01+00:00,259.1397,14.56,12.73,47.84626,-54.09684
2020-10-05 04:39:01+00:00,251.2064,14.5,12.73,47.84626,-54.09684
2020-10-05 04:49:01+00:00,240.5547,14.6,12.73,47.84626,-54.09684
2020-10-05 04:59:01+00:00,236.8364,14.7,12.73,47.84626,-54.09684
2020-10-05 05:09:01+00:00,231.5798,14.6,12.73,47.84626,-54.09684
2020-10-05 05:19:01+00:00,223.4931,14.62,12.73,47.84626,-54.09684
2020-10-05 05:29:01+00:00,215.8164,14.69,12.73,47.84626,-54.09684
2020-10-05 05:39:01+00:00,210.4498,14.7,12.73,47.84626,-54.09684
2020-10-05 05:49:01+00:00,198.9415,14.61,12.73,47.84626,-54.09684
2020-10-05 05:59:01+00:00,191.7615,14.6,12.73,47.84626,-54.09684
2020-10-05 06:09:01+00:00,191.0664,14.6,12.73,47.84626,-54.09684
2020-10-05 06:19:01+00:00,188.8615,14.58,12.73,47.84626,-54.09684
2020-10-05 06:29:01+00:00,181.9131,14.69,12.73,47.84626,-54.09684
2020-10-05 06:39:01+00:00,174.1598,14.7,12.73,47.84626,-54.09684
2020-10-05 06:49:01+00:00,172.4899,14.74,12.73,47.84626,-54.09684
2020-10-05 06:59:01+00:00,171.2598,14.8,12.73,47.84626,-54.09684
2020-10-05 07:09:01+00:00,166.7865,14.8,12.73,47.84626,-54.09684
2020-10-05 07:19:01+00:00,164.9915,14.8,12.73,47.84626,-54.09684
2020-10-05 07:29:01+00:00,170.1298,14.78,12.73,47.84626,-54.09684
2020-10-05 07:39:01+00:00,175.9348,14.8,12.73,47.84626,-54.09684
2020-10-05 07:49:01+00:00,175.8515,14.8,12.73,47.84626,-54.09684
2020-10-05 07:59:01+00:00,180.7198,14.78,12.73,47.84626,-54.09684
2020-10-05 08:09:01+00:00,188.1648,14.7,12.73,47.84626,-54.09684
2020-10-05 08:19:01+00:00,192.3031,14.7,12.73,47.84626,-54.09684
2020-10-05 08:29:01+00:00,195.8231,14.7,12.73,47.84626,-54.09684
2020-10-05 08:39:01+00:00,196.2381,14.68,12.73,47.84626,-54.09684
2020-10-05 08:49:01+00:00,202.0548,14.68,12.73,47.84626,-54.09684
2020-10-05 08:59:01+00:00,210.5381,14.65,12.73,47.84626,-54.09684
2020-10-05 09:09:01+00:00,211.9331,14.7,12.73,47.84626,-54.09684
2020-10-05 09:19:01+00:00,214.4431,14.7,12.73,47.84626,-54.09684
2020-10-05 09:29:01+00:00,223.4781,14.7,12.73,47.84626,-54.09684
2020-10-05 09:39:01+00:00,232.0748,14.7,12.73,47.84626,-54.09684
2020-10-05 09:49:01+00:00,236.6781,14.7,12.73,47.84626,-54.09684
2020-10-05 09:59:01+00:00,243.6647,14.66,12.73,47.84626,-54.09684
2020-10-05 10:09:01+00:00,250.3881,14.6,12.73,47.84626,-54.09684
2020-10-05 10:19:01+00:00,257.3281,14.6,12.73,47.84626,-54.09684
2020-10-05 10:29:01+00:00,258.2947,14.6,12.73,47.84626,-54.09684
2020-10-05 10:39:01+00:00,269.858,14.6,12.73,47.84626,-54.09684
2020-10-05 10:49:01+00:00,277.2597,14.6,12.73,47.84626,-54.09684
2020-10-05 10:59:01+00:00,284.3698,14.6,12.73,47.84626,-54.09684
2020-10-05 11:09:01+00:00,279.8381,14.6,12.73,47.84626,-54.09684
2020-10-05 11:19:01+00:00,283.7547,14.6,12.73,47.84626,-54.09684
2020-10-05 11:29:01+00:00,290.5513,14.6,12.73,47.84626,-54.09684
2020-10-05 11:39:01+00:00,300.593,14.6,12.73,47.84626,-54.09684
2020-10-05 11:49:01+00:00,299.2664,14.58,12.73,47.84626,-54.09684
2020-10-05 11:59:01+00:00,300.5814,14.59,12.73,47.84626,-54.09684
2020-10-05 12:09:01+00:00,306.498,14.58,12.73,47.84626,-54.09684
2020-10-05 12:19:01+00:00,317.9046,14.57,12.89,47.84626,-54.09684
2020-10-05 12:29:01+00:00,321.0513,14.54,12.89,47.84626,-54.09684
2020-10-05 12:39:01+00:00,319.0481,14.58,12.89,47.84626,-54.09684
2020-10-05 12:49:01+00:00,318.6614,14.57,12.89,47.84626,-54.09684
2020-10-05 12:59:01+00:00,322.543,14.58,12.89,47.84626,-54.09684
2020-10-05 13:09:01+00:00,324.8096,14.56,12.89,47.84626,-54.09684
2020-10-05 13:19:01+00:00,326.9048,14.55,13.05,47.84626,-54.09684
2020-10-05 13:29:01+00:00,328.8547,14.51,13.05,47.84626,-54.09684
2020-10-05 13:39:01+00:00,329.9763,14.55,13.05,47.84626,-54.09684
2020-10-05 13:49:01+00:00,335.8896,14.54,13.05,47.84626,-54.09684
2020-10-05 13:59:01+00:00,336.668,14.5,13.05,47.84626,-54.09684
2020-10-05 14:09:01+00:00,332.4697,14.49,13.05,47.84626,-54.09684
2020-10-05 14:19:01+00:00,332.9348,14.5,13.21,47.84626,-54.09684
2020-10-05 14:29:01+00:00,333.2813,14.5,13.21,47.84626,-54.09684
2020-10-05 14:39:01+00:00,328.4997,14.5,13.21,47.84626,-54.09684
2020-10-05 14:49:01+00:00,319.168,14.5,13.21,47.84626,-54.09684
2020-10-05 14:59:01+00:00,315.658,14.5,13.21,47.84626,-54.09684
2020-10-05 15:09:01+00:00,310.9964,14.54,13.21,47.84626,-54.09684
2020-10-05 15:19:01+00:00,306.7163,14.59,13.29,47.84626,-54.09684
2020-10-05 15:29:01+00:00,311.2646,14.59,13.29,47.84626,-54.09684
2020-10-05 15:39:01+00:00,316.7963,14.6,13.29,47.84626,-54.09684
2020-10-05 15:49:01+00:00,309.363,14.6,13.29,47.84626,-54.09684
2020-10-05 15:59:01+00:00,293.3514,14.6,13.29,47.84626,-54.09684
2020-10-05 16:09:01+00:00,291.1681,14.59,13.29,47.84626,-54.09684
2020-10-05 16:19:01+00:00,295.6547,14.6,13.6,47.84626,-54.09684
2020-10-05 16:29:01+00:00,281.098,14.6,13.6,47.84626,-54.09684
2020-10-05 16:39:01+00:00,264.7831,14.6,13.6,47.84626,-54.09684
2020-10-05 16:49:01+00:00,263.1414,14.57,13.6,47.84626,-54.09684
2020-10-05 16:59:01+00:00,262.4248,14.59,13.6,47.84626,-54.09684
2020-10-05 17:09:01+00:00,249.3198,14.58,13.6,47.84626,-54.09684
2020-10-05 17:19:01+00:00,239.5581,14.5,13.84,47.84626,-54.09684
2020-10-05 17:29:01+00:00,238.4581,14.5,13.84,47.84626,-54.09684
2020-10-05 17:39:01+00:00,236.2314,14.5,13.84,47.84626,-54.09684
2020-10-05 17:49:01+00:00,222.8681,14.5,13.84,47.84626,-54.09684
2020-10-05 17:59:01+00:00,209.9798,14.5,13.84,47.84626,-54.09684
2020-10-05 18:09:01+00:00,209.1081,14.5,13.84,47.84626,-54.09684
2020-10-05 18:19:01+00:00,205.8231,14.5,13.92,47.84626,-54.09684
2020-10-05 18:29:01+00:00,190.2998,14.5,13.92,47.84626,-54.09684
2020-10-05 18:39:01+00:00,182.2097,14.5,13.92,47.84626,-54.09684
2020-10-05 18:49:01+00:00,185.3665,14.5,13.92,47.84626,-54.09684
2020-10-05 18:59:01+00:00,179.3898,14.5,13.92,47.84626,-54.09684
2020-10-05 19:09:01+00:00,168.8765,14.5,13.92,47.84626,-54.09684
2020-10-05 19:19:01+00:00,170.5181,14.5,13.68,47.84626,-54.09684
2020-10-05 19:29:01+00:00,173.1798,14.5,13.68,47.84626,-54.09684
2020-10-05 19:39:01+00:00,169.4481,14.5,13.68,47.84626,-54.09684
2020-10-05 19:49:01+00:00,167.8765,14.57,13.68,47.84626,-54.09684
2020-10-05 19:59:01+00:00,174.1215,14.62,13.68,47.84626,-54.09684
2020-10-05 20:09:01+00:00,181.6948,14.64,13.68,47.84626,-54.09684
2020-10-05 20:19:01+00:00,180.3265,14.66,13.37,47.84626,-54.09684
2020-10-05 20:29:01+00:00,179.3715,14.66,13.37,47.84626,-54.09684
2020-10-05 20:39:01+00:00,189.6381,14.67,13.37,47.84626,-54.09684
2020-10-05 20:49:01+00:00,195.5131,14.68,13.37,47.84626,-54.09684
2020-10-05 20:59:01+00:00,196.4681,14.66,13.37,47.84626,-54.09684
2020-10-05 21:09:01+00:00,199.7098,14.66,13.37,47.84626,-54.09684
2020-10-05 21:19:01+00:00,207.7981,14.63,13.05,47.84626,-54.09684
2020-10-05 21:29:01+00:00,215.2348,14.63,13.05,47.84626,-54.09684
2020-10-05 21:39:01+00:00,214.6814,14.65,13.05,47.84626,-54.09684
2020-10-05 21:49:01+00:00,220.1548,14.63,13.05,47.84626,-54.09684
2020-10-05 21:59:01+00:00,234.4664,14.6,13.05,47.84626,-54.09684
2020-10-05 22:09:01+00:00,240.4882,14.63,13.05,47.84626,-54.09684
2020-10-05 22:19:01+00:00,234.66299999999998,14.63,12.81,47.84626,-54.09684
2020-10-05 22:29:01+00:00,234.2048,14.61,12.81,47.84626,-54.09684
2020-10-05 22:39:01+00:00,246.9315,14.61,12.81,47.84626,-54.09684
2020-10-05 22:49:01+00:00,253.9065,14.61,12.81,47.84626,-54.09684
2020-10-05 22:59:01+00:00,249.0314,14.62,12.81,47.84626,-54.09684
2020-10-05 23:09:01+00:00,256.1514,14.6,12.81,47.84626,-54.09684
2020-10-05 23:19:01+00:00,271.2014,14.6,12.81,47.84626,-54.09684
2020-10-05 23:29:01+00:00,276.633,14.6,12.81,47.84626,-54.09684
2020-10-05 23:39:01+00:00,271.4481,14.6,12.81,47.84626,-54.09684
2020-10-05 23:49:01+00:00,285.3647,14.5,12.81,47.84626,-54.09684
2020-10-05 23:59:01+00:00,296.9199,14.56,12.81,47.84626,-54.09684
